Theta_e
352 352 352 353 352 352 351 349 349 350 351 351 353 352 351 350 349 350 350 350 351 350 351 350 351 351 350 350 351 352 352 349 351 353 354 356 356 355 356 354 354 352
352 352 352 353 353 351 350 349 348 349 349 349 351 351 350 350 349 349 350 350 351 351 350 350 350 350 350 350 351 354 355 354 354 354 355 356 356 356 356 355 354 352
353 353 353 353 353 351 352 351 349 349 349 349 349 350 350 350 350 350 350 351 351 351 351 349 350 350 350 350 350 354 357 356 356 356 356 357 357 357 356 356 355 354
353 353 353 353 353 353 353 353 351 350 350 350 350 350 350 350 351 350 350 351 351 352 350 350 351 350 350 350 350 354 358 358 357 357 357 357 357 358 358 357 357 356
354 353 353 353 354 354 353 353 353 351 351 351 350 351 350 350 351 351 351 351 351 351 351 350 350 350 351 350 350 355 358 358 357 357 357 357 358 358 358 358 358 357
355 354 353 354 354 354 354 353 353 352 352 352 351 351 351 351 351 351 351 351 351 352 352 351 351 350 351 351 350 355 358 357 357 357 356 357 358 358 358 359 358 357
355 355 354 355 354 354 354 353 354 352 352 353 352 351 351 351 351 351 351 351 351 352 352 352 351 350 351 351 351 355 357 357 357 357 356 357 357 358 358 359 358 355
356 356 355 355 355 355 354 354 354 353 352 352 352 352 351 351 352 351 351 351 351 351 352 351 350 350 351 352 351 353 356 358 357 357 357 357 358 358 358 358 357 355
356 356 356 355 355 355 355 355 354 354 353 352 353 352 352 351 351 351 351 351 351 351 350 351 350 350 351 352 352 352 354 356 357 357 357 357 358 358 357 357 357 355
356 356 356 356 355 355 355 355 355 355 354 353 353 354 353 352 351 351 351 351 351 351 350 349 350 350 350 351 351 351 352 354 355 356 355 355 355 356 357 357 355 355
357 356 356 356 356 355 355 355 355 355 354 354 353 354 354 353 352 351 351 351 351 350 350 349 349 350 350 350 351 351 351 352 354 354 353 353 354 354 354 354 354 356
356 356 356 356 356 356 356 355 355 355 355 354 354 354 354 353 353 352 351 351 351 351 350 350 349 350 350 350 351 352 352 352 353 353 353 352 353 354 354 354 353 354
357 357 356 356 356 355 355 355 355 355 354 354 354 354 354 354 354 353 352 352 351 351 351 351 350 351 350 350 351 352 353 352 352 353 353 353 353 354 355 356 355 355
357 357 356 356 356 356 356 356 355 355 355 354 354 354 354 354 355 354 353 352 352 351 351 351 351 352 351 351 351 351 352 352 352 353 354 355 354 354 355 356 357 357
357 357 357 356 356 356 355 355 356 355 355 355 354 354 354 354 354 355 354 353 354 353 353 353 354 353 353 352 351 351 352 353 354 354 354 356 356 356 355 355 355 356
357 356 356 357 356 355 355 355 355 355 355 354 354 354 354 354 354 355 355 354 354 354 355 355 355 355 353 352 351 352 352 354 355 354 353 355 356 357 357 356 356 355
356 356 356 356 355 355 355 354 355 356 355 355 354 354 354 354 354 355 355 355 355 355 356 356 356 354 352 351 350 351 351 354 355 355 354 355 356 356 357 358 357 357
356 356 356 356 355 355 355 354 355 355 355 355 355 355 355 355 355 355 355 355 355 355 355 355 355 354 351 351 350 350 350 352 354 356 357 356 357 357 357 358 358 358
357 357 357 356 356 356 355 354 355 355 355 355 355 355 355 355 355 355 355 355 355 355 356 355 356 355 352 350 350 350 350 351 353 355 357 357 357 358 358 358 358 358
357 357 357 357 356 355 355 355 355 355 355 355 355 355 356 355 355 355 356 355 355 356 356 356 355 354 353 352 351 350 351 351 352 354 356 357 358 358 358 358 358 358
357 357 357 357 356 355 356 356 356 356 356 355 355 356 356 356 355 356 356 356 355 356 356 356 356 354 353 352 351 351 351 351 352 353 355 356 357 358 358 358 357 358
357 357 358 358 357 356 356 356 356 356 356 356 356 356 356 356 356 355 356 356 356 355 355 355 355 354 353 352 351 351 351 352 352 353 353 356 357 358 358 358 358 358
357 357 357 358 357 358 357 357 357 357 356 356 357 356 356 357 357 356 356 356 356 356 356 355 355 354 353 352 352 351 351 351 352 352 353 355 356 357 357 358 357 357
357 357 358 357 358 358 357 357 358 357 358 357 357 357 356 357 357 357 357 357 357 357 356 356 356 355 354 352 352 352 351 351 351 351 352 354 354 355 356 356 355 354
358 358 358 358 359 358 358 358 358 357 358 357 357 357 357 357 357 357 358 358 357 357 357 356 356 356 355 353 353 352 351 351 350 351 353 354 355 355 355 355 355 353
358 358 358 358 359 358 358 358 358 358 358 358 358 357 358 358 358 357 358 358 357 357 357 355 356 356 356 354 353 353 352 352 351 351 353 354 354 355 355 356 356 355
Wind_Speed
34 34 32 30 30 29 28 31 31 29 29 28 27 27 27 27 25 24 24 24 22 21 20 19 19 18 17 15 13 11 11 13 13 13 12 11 12 12 12 12 12 12
35 34 33 30 29 32 32 32 32 31 31 31 29 28 28 27 25 24 24 24 23 22 21 20 19 19 18 17 15 11 9 10 11 12 12 12 12 12 12 12 11 13
35 33 34 31 30 33 32 31 33 33 32 31 31 29 28 27 26 25 25 25 24 23 22 21 20 20 19 19 17 13 10 10 11 12 12 12 12 12 12 12 11 12
34 33 33 31 29 30 30 29 31 33 31 31 31 30 28 28 27 26 26 25 25 24 23 22 20 20 20 20 19 14 10 10 11 11 11 11 11 12 12 12 12 12
35 35 34 31 28 27 28 29 29 31 31 31 31 30 29 28 27 27 26 26 26 25 25 24 22 22 21 21 20 15 11 11 11 10 11 12 12 12 12 12 12 13
34 35 35 32 29 29 30 30 30 31 32 31 31 31 30 29 28 28 27 27 27 26 25 25 24 23 22 22 21 15 11 12 12 11 12 13 13 13 13 12 13 15
34 34 34 32 30 30 32 31 30 32 32 31 31 31 30 29 29 29 28 28 27 26 25 25 25 25 24 23 23 18 12 12 12 12 13 14 14 14 14 13 13 16
33 32 33 31 29 29 30 29 30 32 33 32 31 31 31 31 30 30 29 29 27 26 26 26 26 26 25 24 24 22 16 13 13 14 14 15 15 15 16 14 13 16
31 31 32 31 30 29 29 28 28 30 33 33 31 29 30 32 31 30 30 30 28 27 27 27 26 26 26 25 26 25 22 19 16 16 16 17 17 18 18 16 16 18
32 31 31 31 30 29 29 28 27 27 29 32 30 26 27 31 32 30 30 30 29 28 28 27 27 26 26 26 26 26 25 23 21 21 21 21 21 21 19 18 19 20
32 31 31 31 31 30 29 29 27 25 27 29 29 25 25 29 31 31 30 30 29 29 29 29 28 28 27 26 26 26 25 25 24 24 25 25 25 24 22 22 22 21
31 31 31 31 31 30 28 28 27 25 25 28 28 27 26 26 29 31 31 31 30 30 29 30 29 29 28 28 26 25 25 25 24 25 26 27 26 25 24 24 24 23
32 32 31 31 31 30 28 27 27 26 25 26 27 27 27 26 26 29 32 32 31 30 30 30 30 30 30 30 28 27 26 26 25 25 26 27 27 26 24 23 23 24
32 31 31 31 30 30 29 27 27 27 26 26 27 28 28 26 25 27 30 31 30 31 31 30 30 30 30 30 30 29 28 27 27 26 26 26 27 26 25 24 23 23
31 30 31 32 31 32 33 30 28 29 28 27 30 31 30 28 27 26 27 29 29 30 30 29 28 28 29 31 31 30 29 28 26 27 27 26 26 25 25 26 25 24
33 32 32 35 35 36 36 33 30 30 30 31 33 33 32 31 29 26 25 27 28 28 28 26 26 27 30 32 31 31 30 27 26 27 28 27 26 25 25 25 26 26
37 36 34 35 37 37 37 36 33 31 31 33 33 32 32 31 30 27 26 26 25 26 26 25 26 29 31 33 33 32 30 28 26 27 28 28 27 26 25 24 24 25
38 35 32 33 36 36 36 36 34 31 30 31 31 30 30 29 28 28 28 27 25 24 25 25 26 30 32 33 33 33 32 29 26 24 24 25 25 25 25 22 22 22
34 32 31 31 33 35 35 34 33 31 30 30 30 29 28 28 28 28 28 28 26 25 25 26 26 29 33 34 33 33 33 31 29 26 23 23 24 24 23 23 23 22
33 32 31 31 33 34 33 33 33 31 30 29 28 27 27 28 29 28 27 28 28 27 27 26 26 29 32 34 34 34 32 32 32 29 26 24 24 24 23 24 24 24
34 33 31 31 33 34 33 32 31 30 30 28 27 26 26 28 29 28 27 28 29 29 27 27 28 30 33 33 34 33 32 32 32 32 29 27 25 25 25 25 25 25
34 33 32 31 32 32 31 31 30 31 32 30 27 26 25 26 28 28 27 27 29 29 27 27 28 31 33 34 34 33 31 31 33 34 32 30 28 27 27 27 27 26
33 33 33 32 32 31 31 30 30 31 32 30 28 26 24 24 25 26 27 27 28 28 28 28 29 30 33 34 33 32 31 31 33 34 33 31 30 29 28 28 28 29
32 33 32 32 31 31 31 30 29 29 29 28 28 27 25 24 24 25 26 26 26 27 28 28 28 30 33 35 34 32 32 33 34 33 32 32 31 31 31 31 31 32
32 32 32 31 30 30 30 29 29 29 28 27 27 27 26 25 24 23 24 25 25 27 29 30 29 28 31 34 34 33 33 33 34 33 31 30 30 29 29 30 32 34
32 32 32 31 30 30 30 29 29 28 27 26 26 25 24 24 24 23 23 23 24 24 26 29 28 27 29 33 34 34 33 34 34 33 30 28 28 28 26 26 27 28
Wind_Direction
208 209 209 209 211 211 213 217 219 219 222 223 225 230 233 237 240 240 239 240 244 250 253 254 252 250 251 254 253 246 246 248 247 246 244 244 251 253 254 254 253 255
208 210 210 208 210 214 216 219 220 221 224 227 229 232 236 239 241 241 240 240 242 246 250 252 252 250 248 250 252 245 239 241 241 242 242 243 247 251 254 255 255 259
208 208 210 209 211 215 216 218 221 223 225 228 231 233 237 239 240 241 241 241 242 244 248 250 252 252 248 249 251 246 237 237 236 238 241 242 244 248 251 252 253 257
207 208 209 210 211 213 213 213 218 222 223 227 231 233 235 237 238 241 242 242 243 244 247 249 251 251 249 248 249 245 237 239 238 236 239 242 244 245 247 248 249 253
207 209 209 209 209 209 210 212 215 219 221 225 229 231 233 236 237 239 241 243 244 245 246 248 250 250 249 248 246 242 236 240 239 234 237 241 241 243 244 243 245 251
206 208 209 208 208 210 213 215 216 218 221 224 227 229 232 234 236 238 240 243 244 244 244 245 247 248 248 247 245 238 234 238 238 235 238 239 240 241 240 238 243 251
204 206 208 208 209 212 215 216 216 219 221 222 225 229 230 232 234 237 240 243 243 242 242 243 246 247 246 247 245 239 233 236 239 239 239 240 241 241 239 238 243 251
203 204 207 208 207 210 213 213 215 220 222 222 224 228 231 231 233 236 239 241 241 241 242 243 245 246 245 245 245 242 236 233 234 235 236 239 240 241 241 239 241 250
200 202 204 205 206 208 210 211 214 218 221 223 223 225 229 231 233 235 238 240 240 241 243 243 245 245 244 244 245 245 242 238 235 235 236 238 239 242 245 244 246 253
198 200 202 203 205 208 210 210 211 213 217 222 221 220 225 231 233 234 236 239 239 240 243 244 244 243 242 243 245 246 245 244 243 243 245 247 248 249 250 251 255 258
200 200 201 202 204 207 209 209 209 208 212 217 218 216 221 228 232 233 234 236 238 239 242 243 243 243 242 243 244 245 247 247 246 248 251 253 255 256 256 258 260 260
200 200 201 202 203 206 207 207 207 207 208 213 216 216 218 223 229 233 233 235 238 239 241 242 243 243 243 244 244 244 246 248 247 250 253 255 256 257 259 261 262 262
199 199 200 201 203 204 205 205 206 206 208 211 214 215 218 220 224 230 233 236 238 239 240 241 241 242 243 245 245 243 245 248 248 249 252 254 257 257 257 258 259 262
198 198 198 200 200 202 203 203 204 206 207 209 213 215 218 219 220 226 232 235 236 237 238 239 239 239 241 243 244 244 245 247 248 249 249 252 255 258 257 256 256 258
194 195 198 200 200 202 205 204 204 207 208 210 216 219 220 221 221 222 227 230 232 234 235 234 234 235 237 239 241 242 243 244 246 247 248 248 251 254 256 257 257 257
193 196 199 202 204 207 209 208 207 209 211 214 219 222 222 223 223 220 221 225 227 229 230 229 229 232 236 239 240 241 242 242 243 246 248 248 248 251 253 255 257 258
198 201 202 204 207 209 211 211 210 211 213 216 219 221 222 223 222 220 220 223 224 225 226 225 227 233 238 241 242 242 241 240 241 245 248 248 248 249 251 252 254 257
200 200 201 203 206 208 210 212 211 211 213 215 216 218 219 219 220 220 222 223 223 224 225 225 229 235 240 241 243 244 242 240 239 242 245 246 246 247 248 249 250 253
196 195 197 200 203 206 208 209 210 210 211 212 214 216 216 217 219 221 223 223 222 224 226 226 230 236 241 243 243 243 243 240 239 239 241 243 244 244 245 246 248 250
193 193 196 198 201 204 206 207 208 209 211 212 213 214 214 216 219 220 222 223 224 226 228 229 232 236 242 244 244 243 242 241 240 239 240 242 243 243 244 244 247 249
193 194 195 197 200 202 203 205 207 208 209 210 212 213 214 216 219 221 222 224 225 227 230 232 235 238 242 244 245 244 242 241 242 241 240 242 243 243 244 246 248 247
193 194 195 196 198 200 202 204 206 208 210 211 211 214 216 218 220 221 222 224 226 227 229 233 237 239 242 243 245 245 241 240 242 242 241 242 244 244 245 247 248 248
193 193 195 196 197 198 201 203 205 208 210 210 210 213 216 217 219 220 222 224 226 226 226 231 237 240 242 243 244 243 240 239 240 241 241 243 245 247 247 247 249 250
193 194 195 195 196 198 201 203 205 208 209 209 210 213 216 219 219 221 223 224 225 225 226 230 235 239 243 244 244 242 240 239 240 240 241 243 246 248 249 249 252 254
193 195 196 196 197 199 201 203 205 208 209 209 211 214 217 219 220 221 223 224 225 226 229 232 234 237 242 244 244 242 240 238 238 238 238 240 244 247 248 250 253 255
195 197 198 198 199 200 202 205 207 209 208 208 211 214 216 219 220 220 222 225 226 226 229 231 232 234 239 243 244 242 239 237 236 234 235 237 240 243 245 247 249 252